This demonstration page uses our WeatherBlox Daily Observations layout. Learn more.

Left ArrowRight Arrow

39.92423, -83.80882

Hourly Observations for June 25, 2021

Temp ( °F °C ) Dew Point ( °F °C ) Humidity (%) Winds ( mph kmh ) Pressure ( in mb ) Visibility ( mi km ) Precip ( " mm )
12:56 am 00:56 Clear 73 22.8 65 18.3 76 76 SSE 12 19 30.07 1018 10 16 N/A
1:56 am 01:56 Cloudy with Light Rain 73 22.8 65 18.3 76 76 S 7 11 30.10 1019 10 16 0.00 0.00
2:56 am 02:56 Cloudy 71 21.7 66 18.9 84 84 VRB 5 7 30.09 1019 10 16 0.00 0.00
3:56 am 03:56 Mostly Cloudy with Light Rain 70 21.1 66 18.9 87 87 S 3 6 30.09 1019 10 16 0.00 0.00
4:56 am 04:56 Cloudy 70 21.1 66 18.9 87 87 S 6 9 30.10 1019 10 16 0.00 0.00
5:56 am 05:56 Mostly Cloudy 69 20.6 68 20 96 96 SSE 8 13 30.09 1019 10 16 0.00 0.00
6:56 am 06:56 Mostly Cloudy 69 20.6 67 19.4 93 93 S 8 13 30.08 1019 10 16 N/A
7:56 am 07:56 Mostly Cloudy 71 21.7 68 20 90 90 S 7 11 30.09 1019 10 16 N/A
8:56 am 08:56 Partly Cloudy 72 22.2 68 20 87 87 S 10 17 30.09 1019 10 16 N/A
9:56 am 09:56 Cloudy 73 22.8 69 20.6 87 87 SSW 8 13 30.11 1020 10 16 N/A
10:56 am 10:56 Cloudy 72 22.2 69 20.6 91 91 SSW 8 13 30.10 1019 10 16 N/A
11:21 am 11:21 Cloudy with Light Rain 72 22 72 22 100 100 S 10 17 30.09 1019 10 16 0.00 0.00
11:56 am 11:56 Cloudy 73 22.8 70 21.1 90 90 SSW 12 19 30.11 1020 10 16 0.00 0.00
12:56 pm 12:56 Cloudy 74 23.3 70 21.1 88 88 S 10 17 30.10 1019 10 16 N/A
1:56 pm 13:56 Cloudy 77 25 71 21.7 82 82 S 9 15 30.07 1018 10 16 N/A
2:06 pm 14:06 Cloudy 77 25 72 22 83 83 SSW 10 17 30.04 1017 10 16 N/A
2:15 pm 14:15 Cloudy 77 25 72 22 83 83 SSW 10 17 30.04 1017 10 16 N/A
2:56 pm 14:56 Cloudy 76 24.4 71 21.7 85 85 SSW 9 15 30.07 1018 10 16 N/A
3:56 pm 15:56 Cloudy 79 26.1 72 22.2 79 79 SSW 10 17 30.05 1018 10 16 N/A
4:56 pm 16:56 Cloudy 78 25.6 72 22.2 82 82 S 9 15 30.04 1017 10 16 N/A
5:37 pm 17:37 Mostly Cloudy 79 26 72 22 79 79 S 14 22 29.99 1016 10 16 N/A
5:56 pm 17:56 Mostly Cloudy 79 26.1 72 22.2 79 79 S 8 13 30.03 1017 10 16 N/A
6:14 pm 18:14 Cloudy 79 26 72 22 79 79 SSW 9 15 30.00 1016 10 16 N/A
6:56 pm 18:56 Cloudy 78 25.6 72 22.2 82 82 S 9 15 30.01 1016 10 16 N/A
7:10 pm 19:10 Mostly Cloudy 79 26 72 22 79 79 S 9 15 29.97 1015 10 16 N/A
7:56 pm 19:56 Mostly Cloudy 78 25.6 72 22.2 82 82 S 12 19 29.99 1016 10 16 N/A
8:56 pm 20:56 Sunny 77 25 72 22.2 85 85 S 8 13 29.99 1016 10 16 N/A
9:56 pm 21:56 Mostly Clear 76 24.4 73 22.8 91 91 S 7 11 30.00 1016 10 16 N/A
10:56 pm 22:56 Cloudy 75 23.9 73 22.8 94 94 S 5 7 30.03 1017 10 16 N/A
11:56 pm 23:56 Partly Cloudy 74 23.3 73 22.8 97 97 S 6 9 30.04 1017 10 16 N/A

Powered by AerisWeather